sat.trackr.live / text

‹ back to catalog

CENTISPACE-2 S2

NORAD 68351 · 2026-060B

PAYLOAD ACTIVE UNKNOWN

§ Identity

Operator
Country
PRC
Launch date
2026-03-22
Launch site
YSLA
Launch vehicle
Mass (kg)
RCS (m²)

External: N2YO · Heavens-Above · Gunter

§ Orbital elements

Epoch: 2026-09-18T20:53:37.032000Z

Period
101.25 min
Inclination
54.9830°
Eccentricity
0.0008915
Mean motion
14.22254437 rev/d
Perigee alt
811.3 km
Apogee alt
824.2 km
Semi-major
7,195.9 km
B*
2.3537e-5
RAAN
32.8107°
Arg perigee
276.4338°
Mean anomaly
83.5622°
Rev number
2,629

§ Raw data

CENTISPACE-2 S21 68351U 26060B   26261.87056750 -.00000104  00000+0  23537-4 0  99912 68351  54.9830  32.8107 0008915 276.4338  83.5622 14.22254437 26290

JSON: /api/v1/satellites/68351 · /tle

For live sub-satellite position, see the globe view (requires WebGL).

§ Visibility from observer

Set your observer location to see the next 7 days of passes ≥ 10°. The values pass through the URL so the page stays shareable.

No JS? Fill the form by hand. The geolocation button needs JavaScript.